Tracking 30056 objects as of 10-Dec-2024
HD Live streaming from Space Station
objects crossing your sky now

STARLINK-31400

Track STARLINK-31400 now!
10-day predictions
STARLINK-31400 is classified as:


NORAD ID: 59405
Int'l Code: 2024-064H
Perigee: 450.0 km
Apogee: 452.4 km
Inclination: 43.0 °
Period: 93.5 minutes
Semi major axis: 6822 km
RCS: Unknown
Launch date: April 5, 2024
Source: United States (US)
Launch site: AIR FORCE EASTERN TEST RANGE (AFETR)
Your satellite tracking list
Your tracking list is empty




NASA's NSSDC Master Catalog

Two Line Element Set (TLE):
1 59405U 24064H   24344.74498684  .00000434  00000-0  17659-4 0  9999
2 59405  43.0030 112.7554 0001729 262.6762  97.3898 15.40694092 39567
Source of the keplerian elements: AFSPC